Weather History for KGRI - December, 2011

Change the Weather History Date:

Thursday, December 15, 2011

  Actual Average Record
Temperature  
Mean Temperature 29 °F 26 °F  
Max Temperature 37 °F 36 °F 67 °F (2002)
Min Temperature 20 °F 16 °F -16 °F (1989)
Degree Days  
Heating Degree Days 36 39  
Month to date heating degree days 626 554  
Since 1 July heating degree days 1869 1884  
Cooling Degree Days 0 0  
Month to date cooling degree days 0 0  
Year to date cooling degree days 1112 1034  
Moisture  
Dew Point 19 °F    
Average Humidity 63    
Maximum Humidity 85    
Minimum Humidity 40    
Precipitation  
Precipitation 0.00 in 0.02 in 0.60 in (1984)
Month to date precipitation 1.06 0.35  
Year to date precipitation 27.11 26.38  
Snow  
Snow 0.00 in 0.20 in 4.00 in (1940)
Month to date snowfall 7.8 2.4  
Since 1 July snowfall 7.8 6.6  
Snow Depth 0.00 in    
Sea Level Pressure  
Sea Level Pressure 30.29 in    
Wind  
Wind Speed 10 mph (NW)    
Max Wind Speed 25 mph    
Max Gust Speed 33 mph    
Visibility 10 miles    
Events      
T = Trace of Precipitation, MM = Missing Value Source: NWS Daily Summary

Daily Weather History Graph

Daily Weather History Graph

Search for Another Location

Airport or City:

Trip Planner

Search our weather history database for the weather conditions in past years. The results will help you decide how hot, cold, wet, or windy it might be!

Date:

Astronomy

Dec. 15, 2011 Rise Set
Actual Time 7:50 AM CST 5:05 PM CST
Civil Twilight 7:19 AM CST 5:36 PM CST
Nautical Twilight 6:45 AM CST 6:11 PM CST
Astronomical Twilight 6:11 AM CST 6:44 PM CST
Moon 10:35 PM CST (12/15) 11:05 AM CST (12/15)
Length of Visible Light 10h 17m
Length of Day
9h 15m
Waning Gibbous, 74% of the Moon is Illuminated
Dec 15
Waning Gibbous
Dec 17
Last Quarter
Dec 24
New
Jan 1
First Quarter
Jan 9
Full

Hourly Weather History & Observations

Time (CST) Temp. Windchill Dew Point Humidity Pressure Visibility Wind Dir Wind Speed Gust Speed Precip Events Conditions
12:53 AM 33.1 °F 22.6 °F 26.1 °F 75% 30.02 in 10.0 mi NW 16.1 mph - N/A   Clear
1:53 AM 33.1 °F 22.2 °F 25.0 °F 72% 30.06 in 10.0 mi NW 17.3 mph - N/A   Clear
2:53 AM 30.0 °F 18.7 °F 23.0 °F 75% 30.10 in 10.0 mi NW 16.1 mph - N/A   Clear
3:53 AM 28.9 °F 16.5 °F 21.0 °F 72% 30.14 in 10.0 mi NNW 18.4 mph - N/A   Clear
4:53 AM 28.0 °F 15.7 °F 19.9 °F 72% 30.16 in 10.0 mi NNW 17.3 mph 24.2 mph N/A   Clear
5:53 AM 28.4 °F 17.5 °F 19.4 °F 69% 30.15 in 10.0 mi NNW 13.8 mph - N/A   Clear
6:53 AM 26.1 °F 16.2 °F 19.0 °F 75% 30.23 in 10.0 mi NW 10.4 mph - N/A   Clear
7:53 AM 26.1 °F 14.5 °F 18.0 °F 71% 30.26 in 10.0 mi NW 13.8 mph - N/A   Clear
8:53 AM 27.0 °F 15.6 °F 19.0 °F 72% 30.29 in 10.0 mi WNW 13.8 mph - N/A   Clear
9:53 AM 30.0 °F 19.5 °F 19.9 °F 66% 30.32 in 10.0 mi NW 13.8 mph - N/A   Clear
10:53 AM 32.0 °F 21.6 °F 19.9 °F 61% 30.33 in 10.0 mi NW 15.0 mph - N/A   Clear
11:53 AM 33.1 °F 22.6 °F 19.0 °F 56% 30.33 in 10.0 mi NW 16.1 mph - N/A   Clear
12:53 PM 35.6 °F 27.1 °F 19.4 °F 52% 30.26 in 10.0 mi NW 12.7 mph - N/A   Clear
1:53 PM 36.0 °F 28.0 °F 17.1 °F 46% 30.31 in 10.0 mi NW 11.5 mph - N/A   Clear
2:53 PM 37.0 °F 28.5 °F 16.0 °F 42% 30.31 in 10.0 mi NNW 13.8 mph - N/A   Clear
3:53 PM 37.0 °F 31.0 °F 17.1 °F 44% 30.33 in 10.0 mi NW 8.1 mph - N/A   Clear
4:53 PM 32.0 °F 27.5 °F 19.9 °F 61% 30.35 in 10.0 mi NW 4.6 mph - N/A   Clear
5:53 PM 30.0 °F 24.1 °F 19.9 °F 66% 30.37 in 10.0 mi West 5.8 mph - N/A   Clear
6:53 PM 27.0 °F - 19.0 °F 72% 30.40 in 10.0 mi Calm Calm - N/A   Clear
7:53 PM 24.1 °F - 17.1 °F 75% 30.42 in 10.0 mi Calm Calm - N/A   Clear
8:53 PM 24.1 °F 18.2 °F 18.0 °F 77% 30.43 in 10.0 mi ESE 4.6 mph - N/A   Clear
9:53 PM 23.0 °F 18.4 °F 18.0 °F 81% 30.43 in 10.0 mi ESE 3.5 mph - N/A   Clear
10:53 PM 23.0 °F - 17.1 °F 78% 30.42 in 10.0 mi Calm Calm - N/A   Clear
11:53 PM 23.0 °F - 17.1 °F 78% 30.44 in 10.0 mi Calm Calm - N/A   Clear